Regional Weather Roundup
Issued by NWS

Home | Current Version | Previous Version | Text Only | Print | Product List | Glossary Off
Versions: 1 2 3 4 5 6 7 8 9 10 11 12 13 14 15 16 17 18 19 20 21 22 23 24 25 26 27 28 29 30 31 32 33 34 35 36 37 38 39 40 41 42 43 44 45 46 47 48 49 50

200
ASUS44 KJAN 011710
RWRMS

MISSISSIPPI HOURLY WEATHER ROUNDUP
NATIONAL WEATHER SERVICE JACKSON MS
1200 PM CDT FRI AUG 01 2014

NOTE: "FAIR: INDICATES FEW OR NO CLOUDS BELOW 12,000 FEET WITH NO
SIGNIFICANT WEATHER AND/OR OBSTRUCTIONS TO VISIBILITY.

MSZ001>002-007>008-010>013-018>021-025>028-034>036-011800-
NORTHWEST MISSISSIPPI

CITY           SKY/WX    TMP DP  RH WIND       PRES   REMARKS
CLARKSDALE     FAIR      82  68  61 E8        30.05S
CLEVELAND      DRIZZLE   75  72  89 CALM      30.04S
GREENWOOD      LGT RAIN  79  66  64 SE3       30.04R
GREENVILLE     CLOUDY    75  69  81 NE5       30.04S
GRENADA        FAIR      82  64  54 E6        30.04S
OLIVE BRANCH   PTSUNNY   79  66  65 NE6       30.07F
OXFORD         FAIR      81  63  54 E5        30.07S
TUNICA         SUNNY     81  64  57 NE5       30.06S
$$

MSZ003>006-009-014>017-022>024-029>033-037>039-011800-
NORTHEAST MISSISSIPPI

CITY           SKY/WX    TMP DP  RH WIND       PRES   REMARKS
BELMONT        CLOUDY    80  67  64 CALM      30.06S
COLUMBUS AFB   MOSUNNY   83  67  59 NE3       30.03F
CORINTH        FAIR      81  61  50 NE3       30.06S
GOLDN TRIANGLE MOSUNNY   82  66  57 E5        30.04F
STARKVILLE     FAIR      81  63  54 CALM      30.04S
TUPELO         MOSUNNY   82  66  58 NE9       30.05F
$$

MSZ040-058-011800-
CENTRAL MISSISSIPPI

CITY           SKY/WX    TMP DP  RH WIND       PRES   REMARKS
JACKSON INTL   CLOUDY    76  66  71 S5        30.05R
JACKSON HAWKNS LGT RAIN  75  64  68 S5        30.06R
MERIDIAN KEY   CLOUDY    84  63  49 VRB3      30.02F
MERIDIAN NAS   PTSUNNY   84  64  50 NE6       30.02F
RAYMOND        FAIR      73  68  83 SE5       30.05S
VICKSBURG      LGT RAIN  71  67  87 SE6       30.04S
$$

MSZ059>079-011800-
SOUTH MISSISSIPPI

CITY           SKY/WX    TMP DP  RH WIND       PRES   REMARKS
BROOKHAVEN     LGT RAIN  72  70  94 E3        30.07S
COLUMBIA       DRIZZLE   73  70  88 CALM      30.04S
HATTIESBURG    CLOUDY    75  67  76 CALM      30.05R
MCCOMB         LGT RAIN  72  68  87 E3        30.05R FOG
NATCHEZ        CLOUDY    70  66  88 E6        30.03F
PINE BELT      CLOUDY    72  66  83 CALM      30.07R
$$

MSZ080>082-011800-
COASTAL MISSISSIPPI

CITY           SKY/WX    TMP DP  RH WIND       PRES   REMARKS
BAY ST LOUIS   MOSUNNY  N/A N/A N/A CALM      30.03R
BILOXI         CLOUDY    79  69  70 N3        30.02S
PASCAGOULA     CLOUDY    83  67  58 N3        30.02F
GULFPORT       CLOUDY    83  68  60 CALM      30.02S
$$



USA.gov is the U.S. government's official web portal to all federal, state and local government web resources and services.